Simultaneous Nadir Overpasses (SNOs) Predictions

Prediction of SNOs between AQUA and METOP-B Satellite Orbit:

Table of predicted SNOs for the next 14.0 days since TLE Epoch: 4/19/2025
Index Date (AQUA) Time (AQUA) Lat,Lon (AQUA) SZA (AQUA ) Date (METOP-B) Time (METOP-B) Lat,Lon (METOP-B) SZA (METOP-B ) Distance(km) Time Diff (sec)
1 04/19/2025 13:28:51 -77.23, 156.85 114.23 04/19/2025 13:27:51 -77.23, 156.83 114.22 0.63 60
2 04/19/2025 14:18:11 77.27, -35.63 65.80 04/19/2025 14:18:30 77.29, -35.59 65.83 3.21 19
3 04/22/2025 02:17:26 -77.27, -35.38 115.05 04/22/2025 02:16:48 -77.24, -35.41 115.07 2.69 38
4 04/22/2025 03:06:46 77.31, 132.12 64.98 04/22/2025 03:07:27 77.30, 132.16 64.97 1.34 41
5 04/24/2025 15:06:00 -77.28, 132.51 115.88 04/24/2025 15:05:45 -77.29, 132.50 115.87 1.21 15
6 04/24/2025 15:55:20 77.32, -60.00 64.15 04/24/2025 15:56:24 77.34, -59.95 64.17 2.44 64
7 04/27/2025 03:05:15 77.28, 132.73 63.32 04/27/2025 03:04:02 77.25, 132.76 63.29 3.37 73
8 04/27/2025 03:54:33 -77.30, -59.67 116.68 04/27/2025 03:54:42 -77.32, -59.63 116.66 2.20 9
9 04/29/2025 15:53:46 77.28, -59.33 62.53 04/29/2025 15:52:59 77.27, -59.43 62.52 2.71 47
10 04/29/2025 16:43:05 -77.34, 108.10 117.43 04/29/2025 16:43:39 -77.34, 108.20 117.43 2.39 34
11 05/02/2025 04:42:16 77.30, 108.55 61.78 05/02/2025 04:41:55 77.33, 108.53 61.81 3.36 21



Historial Predications of SNOs between AQUA and METOP-B
